owner,sensor,date,latitude,longitude,vertical_datum,direction_of_sea_water_velocity,sea_water_speed,upward_sea_water_velocity,qcFlag 
ADCP,ioos:station:wmo:42890:1,2014-07-01T00:02:00Z,27.6250,-90.4410,15.2,83.0,19.4,-99999.0,'1111122,1111122,1199999999' 
ADCP,ioos:station:wmo:42890:1,2014-07-01T00:22:00Z,27.6250,-90.4410,15.2,87.0,19.7,-9999.0,'11111222,11111222,99999999' 
ADCP,ioos:station:wmo:42890:1,2014-07-01T00:42:00Z,27.6250,-90.4410,15.2,94.0,18.5,-9999.0,'11111222,11111222,99999999' 
ADCP,ioos:station:wmo:42890:1,2014-07-01T01:02:00Z,27.6250,-90.4410,15.2,113.0,20.9,-9999.0,'11111222,11111222,99999999' 
ADCP,ioos:station:wmo:42890:1,2014-07-01T01:22:00Z,27.6250,-90.4410,15.2,108.0,13.9,-99999.0,'1111122,1111122,1199999999' 
ADCP,ioos:station:wmo:42890:1,2014-07-01T01:42:00Z,27.6250,-90.4410,15.2,117.0,12.7,-9999.0,'11111222,11111222,99999999' 
ADCP,ioos:station:wmo:42890:1,2014-07-01T02:02:00Z,27.6250,-90.4410,15.2,107.0,15.0,-9999.0,'11111222,11111222,99999999' 
ADCP,ioos:station:wmo:42890:1,2014-07-01T02:22:00Z,27.6250,-90.4410,15.2,115.0,12.2,-99999.0,'1111122,1111122,1199999999' 
ADCP,ioos:station:wmo:42890:1,2014-07-01T02:42:00Z,27.6250,-90.4410,15.2,119.0,14.1,-9999.0,'11111222,11111222,99999999' 
ADCP,ioos:station:wmo:42890:1,2014-07-01T03:02:00Z,27.6250,-90.4410,15.2,112.0,15.8,-9999.0,'11111222,11111222,99999999' 
ADCP,ioos:station:wmo:42890:1,2014-07-01T03:22:00Z,27.6250,-90.4410,15.2,112.0,14.6,-99999.0,'1111122,1111122,1199999999' 
ADCP,ioos:station:wmo:42890:1,2014-07-01T03:42:00Z,27.6250,-90.4410,15.2,119.0,22.5,-9999.0,'11111222,11111222,99999999' 
ADCP,ioos:station:wmo:42890:1,2014-07-01T04:02:00Z,27.6250,-90.4410,15.2,102.0,19.0,-9999.0,'11111222,11111222,99999999' 
ADCP,ioos:station:wmo:42890:1,2014-07-01T04:22:00Z,27.6250,-90.4410,15.2,111.0,15.3,-99999.0,'1111122,1111122,1199999999' 
ADCP,ioos:station:wmo:42890:1,2014-07-01T04:42:00Z,27.6250,-90.4410,15.2,114.0,14.3,-9999.0,'11111222,11111222,99999999' 
ADCP,ioos:station:wmo:42890:1,2014-07-01T05:02:00Z,27.6250,-90.4410,15.2,124.0,11.2,-99999.0,'1111122,1111122,1199999999' 
ADCP,ioos:station:wmo:42890:1,2014-07-01T05:22:00Z,27.6250,-90.4410,15.2,126.0,10.8,-9999.0,'11111222,11111222,99999999' 
ADCP,ioos:station:wmo:42890:1,2014-07-01T05:42:00Z,27.6250,-90.4410,15.2,172.0,15.9,-9999.0,'11111222,11111222,99999999' 
ADCP,ioos:station:wmo:42890:1,2014-07-01T06:02:00Z,27.6250,-90.4410,15.2,123.0,12.6,-99999.0,'1111122,1111122,1199999999' 
ADCP,ioos:station:wmo:42890:1,2014-07-01T06:22:00Z,27.6250,-90.4410,15.2,141.0,8.9,-9999.0,'11133222,11111222,99999999' 
ADCP,ioos:station:wmo:42890:1,2014-07-01T06:42:00Z,27.6250,-90.4410,15.2,135.0,9.1,-9999.0,'11133222,11111222,99999999' 
ADCP,ioos:station:wmo:42890:1,2014-07-01T07:02:00Z,27.6250,-90.4410,15.2,114.0,12.8,-9999.0,'11111222,11111222,99999999' 
ADCP,ioos:station:wmo:42890:1,2014-07-01T07:22:00Z,27.6250,-90.4410,15.2,150.0,10.4,-99999.0,'1111122,1111122,1199999999' 
ADCP,ioos:station:wmo:42890:1,2014-07-01T07:42:00Z,27.6250,-90.4410,15.2,206.0,15.9,-9999.0,'11111222,11111222,99999999' 
ADCP,ioos:station:wmo:42890:1,2014-07-01T08:02:00Z,27.6250,-90.4410,15.2,179.0,11.2,-9999.0,'11111222,11111222,99999999' 
ADCP,ioos:station:wmo:42890:1,2014-07-01T08:22:00Z,27.6250,-90.4410,15.2,207.0,8.5,-99999.0,'1111122,1111122,1199999999' 
ADCP,ioos:station:wmo:42890:1,2014-07-01T08:42:00Z,27.6250,-90.4410,15.2,108.0,11.2,-9999.0,'11111222,11111222,99999999' 
ADCP,ioos:station:wmo:42890:1,2014-07-01T09:02:00Z,27.6250,-90.4410,15.2,119.0,13.5,-9999.0,'11111222,11111222,99999999' 
ADCP,ioos:station:wmo:42890:1,2014-07-01T09:22:00Z,27.6250,-90.4410,15.2,104.0,18.6,-99999.0,'1111122,1111122,1199999999' 
ADCP,ioos:station:wmo:42890:1,2014-07-01T09:42:00Z,27.6250,-90.4410,15.2,112.0,15.1,-9999.0,'11111222,11111222,99999999' 
ADCP,ioos:station:wmo:42890:1,2014-07-01T10:02:00Z,27.6250,-90.4410,15.2,116.0,14.3,-9999.0,'11111222,11111222,99999999' 
ADCP,ioos:station:wmo:42890:1,2014-07-01T10:22:00Z,27.6250,-90.4410,15.2,126.0,12.0,-99999.0,'1111122,1111122,1199999999' 
ADCP,ioos:station:wmo:42890:1,2014-07-01T10:42:00Z,27.6250,-90.4410,15.2,140.0,9.7,-9999.0,'11133222,11111222,99999999' 
ADCP,ioos:station:wmo:42890:1,2014-07-01T11:02:00Z,27.6250,-90.4410,15.2,140.0,7.1,-9999.0,'11133222,11111222,99999999' 
ADCP,ioos:station:wmo:42890:1,2014-07-01T11:22:00Z,27.6250,-90.4410,15.2,131.0,7.6,-99999.0,'1111122,1111122,1199999999' 
ADCP,ioos:station:wmo:42890:1,2014-07-01T11:42:00Z,27.6250,-90.4410,15.2,145.0,6.5,-9999.0,'11133222,11111222,99999999' 
ADCP,ioos:station:wmo:42890:1,2014-07-01T12:02:00Z,27.6250,-90.4410,15.2,99.0,7.8,-9999.0,'11133222,11111222,99999999' 
ADCP,ioos:station:wmo:42890:1,2014-07-01T12:22:00Z,27.6250,-90.4410,15.2,105.0,7.0,-99999.0,'1111122,1111122,1199999999' 
ADCP,ioos:station:wmo:42890:1,2014-07-01T12:42:00Z,27.6250,-90.4410,15.2,96.0,8.3,-9999.0,'11133222,11111222,99999999' 
ADCP,ioos:station:wmo:42890:1,2014-07-01T13:02:00Z,27.6250,-90.4410,15.2,107.0,6.2,-9999.0,'11133222,11111222,99999999' 
ADCP,ioos:station:wmo:42890:1,2014-07-01T13:22:00Z,27.6250,-90.4410,15.2,144.0,4.6,-99999.0,'1111122,1111122,1199999999' 
ADCP,ioos:station:wmo:42890:1,2014-07-01T13:42:00Z,27.6250,-90.4410,15.2,193.0,3.2,-9999.0,'11133222,11111222,99999999' 
ADCP,ioos:station:wmo:42890:1,2014-07-01T14:02:00Z,27.6250,-90.4410,15.2,151.0,3.3,-9999.0,'11133222,11111222,99999999' 
ADCP,ioos:station:wmo:42890:1,2014-07-01T14:22:00Z,27.6250,-90.4410,15.2,171.0,4.3,-99999.0,'1111122,1111122,1199999999' 
ADCP,ioos:station:wmo:42890:1,2014-07-01T14:42:00Z,27.6250,-90.4410,15.2,228.0,8.2,-9999.0,'11133222,11111222,99999999' 
ADCP,ioos:station:wmo:42890:1,2014-07-01T15:02:00Z,27.6250,-90.4410,15.2,253.0,11.0,-9999.0,'11111222,11111222,99999999' 
ADCP,ioos:station:wmo:42890:1,2014-07-01T15:22:00Z,27.6250,-90.4410,15.2,256.0,11.7,-99999.0,'1111122,1111122,1199999999' 
ADCP,ioos:station:wmo:42890:1,2014-07-01T15:42:00Z,27.6250,-90.4410,15.2,256.0,15.4,-9999.0,'11111222,11111222,99999999' 
ADCP,ioos:station:wmo:42890:1,2014-07-01T16:02:00Z,27.6250,-90.4410,15.2,259.0,14.5,-9999.0,'11111222,11111222,99999999' 
ADCP,ioos:station:wmo:42890:1,2014-07-01T16:22:00Z,27.6250,-90.4410,15.2,253.0,13.8,-99999.0,'1111122,1111122,1199999999' 
ADCP,ioos:station:wmo:42890:1,2014-07-01T16:42:00Z,27.6250,-90.4410,15.2,265.0,13.9,-9999.0,'11111222,11111222,99999999' 
ADCP,ioos:station:wmo:42890:1,2014-07-01T17:02:00Z,27.6250,-90.4410,15.2,263.0,25.4,-9999.0,'11111222,11111222,99999999' 
ADCP,ioos:station:wmo:42890:1,2014-07-01T17:22:00Z,27.6250,-90.4410,15.2,349.0,7.6,-99999.0,'1111122,1111122,1199999999' 
ADCP,ioos:station:wmo:42890:1,2014-07-01T17:42:00Z,27.6250,-90.4410,15.2,270.0,12.7,-9999.0,'11111222,11111222,99999999' 
ADCP,ioos:station:wmo:42890:1,2014-07-01T18:02:00Z,27.6250,-90.4410,15.2,257.0,19.4,-9999.0,'11111222,11111222,99999999' 
ADCP,ioos:station:wmo:42890:1,2014-07-01T18:22:00Z,27.6250,-90.4410,15.2,225.0,9.6,-99999.0,'1111122,1111122,1199999999' 
ADCP,ioos:station:wmo:42890:1,2014-07-01T18:42:00Z,27.6250,-90.4410,15.2,3.0,9.9,-9999.0,'11133222,11111222,99999999' 
ADCP,ioos:station:wmo:42890:1,2014-07-01T19:02:00Z,27.6250,-90.4410,15.2,268.0,18.3,-9999.0,'11111222,11111222,99999999' 
ADCP,ioos:station:wmo:42890:1,2014-07-01T19:22:00Z,27.6250,-90.4410,15.2,261.0,25.5,-9999.0,'11111222,11111222,99999999' 
ADCP,ioos:station:wmo:42890:1,2014-07-01T19:42:00Z,27.6250,-90.4410,15.2,300.0,10.1,-9999.0,'11111222,11111222,99999999' 
ADCP,ioos:station:wmo:42890:1,2014-07-01T20:02:00Z,27.6250,-90.4410,15.2,266.0,12.7,-9999.0,'11111222,11111222,99999999' 
ADCP,ioos:station:wmo:42890:1,2014-07-01T20:22:00Z,27.6250,-90.4410,15.2,281.0,7.3,-99999.0,'1111122,1111122,1199999999' 
ADCP,ioos:station:wmo:42890:1,2014-07-01T20:42:00Z,27.6250,-90.4410,15.2,230.0,5.0,-9999.0,'11133222,11111222,99999999' 
ADCP,ioos:station:wmo:42890:1,2014-07-01T21:02:00Z,27.6250,-90.4410,15.2,55.0,8.2,-9999.0,'11133222,11111222,99999999' 
ADCP,ioos:station:wmo:42890:1,2014-07-01T21:22:00Z,27.6250,-90.4410,15.2,61.0,7.2,-99999.0,'1111122,1111122,1199999999' 
ADCP,ioos:station:wmo:42890:1,2014-07-01T21:42:00Z,27.6250,-90.4410,15.2,72.0,8.9,-9999.0,'11133222,11111222,99999999' 
ADCP,ioos:station:wmo:42890:1,2014-07-01T22:02:00Z,27.6250,-90.4410,15.2,65.0,16.6,-9999.0,'11111222,11111222,99999999' 
ADCP,ioos:station:wmo:42890:1,2014-07-01T22:22:00Z,27.6250,-90.4410,15.2,79.0,9.1,-99999.0,'1111122,1111122,1199999999' 
ADCP,ioos:station:wmo:42890:1,2014-07-01T22:42:00Z,27.6250,-90.4410,15.2,86.0,9.3,-9999.0,'11133222,11111222,99999999' 
ADCP,ioos:station:wmo:42890:1,2014-07-01T23:02:00Z,27.6250,-90.4410,15.2,84.0,15.4,-9999.0,'11111222,11111222,99999999' 
ADCP,ioos:station:wmo:42890:1,2014-07-01T23:22:00Z,27.6250,-90.4410,15.2,97.0,15.0,-99999.0,'1111122,1111122,1199999999' 
ADCP,ioos:station:wmo:42890:1,2014-07-01T23:42:00Z,27.6250,-90.4410,15.2,97.0,15.7,-9999.0,'11111222,11111222,99999999' 
ADCP,ioos:station:wmo:42890:1,2014-07-02T00:02:00Z,27.6250,-90.4410,15.2,101.0,11.1,-9999.0,'11111222,11111222,99999999' 
ADCP,ioos:station:wmo:42890:1,2014-07-02T00:22:00Z,27.6250,-90.4410,15.2,114.0,10.1,-99999.0,'1111122,1111122,1199999999' 
ADCP,ioos:station:wmo:42890:1,2014-07-02T00:42:00Z,27.6250,-90.4410,15.2,110.0,11.3,-9999.0,'11111222,11111222,99999999' 
ADCP,ioos:station:wmo:42890:1,2014-07-02T01:02:00Z,27.6250,-90.4410,15.2,122.0,11.6,-9999.0,'11111222,11111222,99999999' 
ADCP,ioos:station:wmo:42890:1,2014-07-02T01:22:00Z,27.6250,-90.4410,15.2,127.0,12.2,-99999.0,'1111122,1111122,1199999999' 
ADCP,ioos:station:wmo:42890:1,2014-07-02T01:42:00Z,27.6250,-90.4410,15.2,140.0,16.4,-9999.0,'11111222,11111222,99999999' 
ADCP,ioos:station:wmo:42890:1,2014-07-02T02:02:00Z,27.6250,-90.4410,15.2,94.0,27.3,-9999.0,'11111222,11111222,99999999' 
ADCP,ioos:station:wmo:42890:1,2014-07-02T02:22:00Z,27.6250,-90.4410,15.2,100.0,16.7,-99999.0,'1111122,1111122,1199999999' 
ADCP,ioos:station:wmo:42890:1,2014-07-02T02:42:00Z,27.6250,-90.4410,15.2,114.0,12.7,-9999.0,'11111222,11111222,99999999' 
ADCP,ioos:station:wmo:42890:1,2014-07-02T03:02:00Z,27.6250,-90.4410,15.2,102.0,14.2,-9999.0,'11111222,11111222,99999999' 
ADCP,ioos:station:wmo:42890:1,2014-07-02T03:22:00Z,27.6250,-90.4410,15.2,98.0,15.4,-99999.0,'1111122,1111122,1199999999' 
ADCP,ioos:station:wmo:42890:1,2014-07-02T03:42:00Z,27.6250,-90.4410,15.2,95.0,23.0,-9999.0,'11111222,11111222,99999999' 
ADCP,ioos:station:wmo:42890:1,2014-07-02T04:02:00Z,27.6250,-90.4410,15.2,94.0,20.3,-9999.0,'11111222,11111222,99999999' 
ADCP,ioos:station:wmo:42890:1,2014-07-02T04:22:00Z,27.6250,-90.4410,15.2,95.0,18.4,-99999.0,'1111122,1111122,1199999999' 
ADCP,ioos:station:wmo:42890:1,2014-07-02T04:42:00Z,27.6250,-90.4410,15.2,182.0,27.9,-9999.0,'11111222,11111222,99999999' 
ADCP,ioos:station:wmo:42890:1,2014-07-02T05:02:00Z,27.6250,-90.4410,15.2,111.0,19.1,-99999.0,'1111122,1111122,1199999999' 
ADCP,ioos:station:wmo:42890:1,2014-07-02T05:22:00Z,27.6250,-90.4410,15.2,98.0,26.0,-9999.0,'11111222,11111222,99999999' 
ADCP,ioos:station:wmo:42890:1,2014-07-02T05:42:00Z,27.6250,-90.4410,15.2,88.0,31.0,-9999.0,'11111222,11111222,99999999' 
ADCP,ioos:station:wmo:42890:1,2014-07-02T06:02:00Z,27.6250,-90.4410,15.2,95.0,21.5,-99999.0,'1111122,1111122,1199999999' 
ADCP,ioos:station:wmo:42890:1,2014-07-02T06:22:00Z,27.6250,-90.4410,15.2,97.0,20.2,-9999.0,'11111222,11111222,99999999' 
ADCP,ioos:station:wmo:42890:1,2014-07-02T06:42:00Z,27.6250,-90.4410,15.2,105.0,19.4,-9999.0,'11111222,11111222,99999999' 
ADCP,ioos:station:wmo:42890:1,2014-07-02T07:02:00Z,27.6250,-90.4410,15.2,108.0,21.1,-9999.0,'11111222,11111222,99999999' 
ADCP,ioos:station:wmo:42890:1,2014-07-02T07:22:00Z,27.6250,-90.4410,15.2,104.0,19.6,-99999.0,'1111122,1111122,1199999999' 
ADCP,ioos:station:wmo:42890:1,2014-07-02T07:42:00Z,27.6250,-90.4410,15.2,108.0,17.2,-9999.0,'11111222,11111222,99999999' 
ADCP,ioos:station:wmo:42890:1,2014-07-02T08:02:00Z,27.6250,-90.4410,15.2,104.0,21.1,-99999.0,'1111122,1111122,1199999999' 
ADCP,ioos:station:wmo:42890:1,2014-07-02T08:22:00Z,27.6250,-90.4410,15.2,97.0,29.8,-9999.0,'11111222,11111222,99999999' 
ADCP,ioos:station:wmo:42890:1,2014-07-02T08:42:00Z,27.6250,-90.4410,15.2,110.0,21.3,-9999.0,'11111222,11111222,99999999' 
ADCP,ioos:station:wmo:42890:1,2014-07-02T09:02:00Z,27.6250,-90.4410,15.2,111.0,26.0,-9999.0,'11111222,11111222,99999999' 
ADCP,ioos:station:wmo:42890:1,2014-07-02T09:22:00Z,27.6250,-90.4410,15.2,112.0,30.3,-99999.0,'1111122,1111122,1199999999' 
ADCP,ioos:station:wmo:42890:1,2014-07-02T09:42:00Z,27.6250,-90.4410,15.2,125.0,26.1,-9999.0,'11111222,11111222,99999999' 
ADCP,ioos:station:wmo:42890:1,2014-07-02T10:02:00Z,27.6250,-90.4410,15.2,127.0,24.8,-9999.0,'11111222,11111222,99999999' 
ADCP,ioos:station:wmo:42890:1,2014-07-02T10:22:00Z,27.6250,-90.4410,15.2,133.0,20.7,-99999.0,'1111122,1111122,1199999999' 
ADCP,ioos:station:wmo:42890:1,2014-07-02T10:42:00Z,27.6250,-90.4410,15.2,129.0,20.0,-9999.0,'11111222,11111222,99999999' 
ADCP,ioos:station:wmo:42890:1,2014-07-02T11:02:00Z,27.6250,-90.4410,15.2,129.0,18.3,-9999.0,'11111222,11111222,99999999' 
ADCP,ioos:station:wmo:42890:1,2014-07-02T11:22:00Z,27.6250,-90.4410,15.2,128.0,16.2,-99999.0,'1111122,1111122,1199999999' 
ADCP,ioos:station:wmo:42890:1,2014-07-02T11:42:00Z,27.6250,-90.4410,15.2,139.0,14.2,-9999.0,'11111222,11111222,99999999' 
ADCP,ioos:station:wmo:42890:1,2014-07-02T12:02:00Z,27.6250,-90.4410,15.2,151.0,13.9,-9999.0,'11111222,11111222,99999999' 
ADCP,ioos:station:wmo:42890:1,2014-07-02T12:22:00Z,27.6250,-90.4410,15.2,157.0,12.8,-99999.0,'1111122,1111122,1199999999' 
ADCP,ioos:station:wmo:42890:1,2014-07-02T12:42:00Z,27.6250,-90.4410,15.2,154.0,12.4,-9999.0,'11111222,11111222,99999999' 
ADCP,ioos:station:wmo:42890:1,2014-07-02T13:02:00Z,27.6250,-90.4410,15.2,159.0,12.2,-9999.0,'11111222,11111222,99999999' 
ADCP,ioos:station:wmo:42890:1,2014-07-02T13:22:00Z,27.6250,-90.4410,15.2,163.0,11.5,-99999.0,'1111122,1111122,1199999999' 
ADCP,ioos:station:wmo:42890:1,2014-07-02T13:42:00Z,27.6250,-90.4410,15.2,156.0,13.5,-9999.0,'11111222,11111222,99999999' 
ADCP,ioos:station:wmo:42890:1,2014-07-02T14:02:00Z,27.6250,-90.4410,15.2,143.0,13.3,-9999.0,'11111222,11111222,99999999' 
ADCP,ioos:station:wmo:42890:1,2014-07-02T14:22:00Z,27.6250,-90.4410,15.2,141.0,13.8,-9999.0,'11111222,11111222,99999999' 
ADCP,ioos:station:wmo:42890:1,2014-07-02T14:42:00Z,27.6250,-90.4410,15.2,159.0,13.6,-9999.0,'11111222,11111222,99999999' 
ADCP,ioos:station:wmo:42890:1,2014-07-02T15:02:00Z,27.6250,-90.4410,15.2,193.0,13.4,-9999.0,'11111222,11111222,99999999' 
ADCP,ioos:station:wmo:42890:1,2014-07-02T15:22:00Z,27.6250,-90.4410,15.2,158.0,13.8,-99999.0,'1111122,1111122,1199999999' 
ADCP,ioos:station:wmo:42890:1,2014-07-02T15:42:00Z,27.6250,-90.4410,15.2,221.0,13.7,-9999.0,'11111222,11111222,99999999' 
ADCP,ioos:station:wmo:42890:1,2014-07-02T16:02:00Z,27.6250,-90.4410,15.2,222.0,13.5,-9999.0,'11111222,11111222,99999999' 
ADCP,ioos:station:wmo:42890:1,2014-07-02T16:22:00Z,27.6250,-90.4410,15.2,230.0,12.9,-99999.0,'1111122,1111122,1199999999' 
ADCP,ioos:station:wmo:42890:1,2014-07-02T16:42:00Z,27.6250,-90.4410,15.2,225.0,9.3,-9999.0,'11133222,11111222,99999999' 
ADCP,ioos:station:wmo:42890:1,2014-07-02T17:02:00Z,27.6250,-90.4410,15.2,227.0,7.4,-9999.0,'11133222,11111222,99999999' 
ADCP,ioos:station:wmo:42890:1,2014-07-02T17:22:00Z,27.6250,-90.4410,15.2,77.0,6.1,-99999.0,'1111122,1111122,1199999999' 
ADCP,ioos:station:wmo:42890:1,2014-07-02T17:42:00Z,27.6250,-90.4410,15.2,65.0,5.5,-9999.0,'11133222,11111222,99999999' 
ADCP,ioos:station:wmo:42890:1,2014-07-02T18:02:00Z,27.6250,-90.4410,15.2,221.0,4.4,-9999.0,'11133222,11111222,99999999' 
ADCP,ioos:station:wmo:42890:1,2014-07-02T18:22:00Z,27.6250,-90.4410,15.2,250.0,13.2,-99999.0,'1111122,1111122,1199999999' 
ADCP,ioos:station:wmo:42890:1,2014-07-02T18:42:00Z,27.6250,-90.4410,15.2,229.0,7.3,-9999.0,'11133222,11111222,99999999' 
ADCP,ioos:station:wmo:42890:1,2014-07-02T19:02:00Z,27.6250,-90.4410,15.2,119.0,7.7,-9999.0,'11133222,11111222,99999999' 
ADCP,ioos:station:wmo:42890:1,2014-07-02T19:22:00Z,27.6250,-90.4410,15.2,256.0,6.7,-99999.0,'1111122,1111122,1199999999' 
ADCP,ioos:station:wmo:42890:1,2014-07-02T19:42:00Z,27.6250,-90.4410,15.2,91.0,20.0,-9999.0,'11111222,11111222,99999999' 
ADCP,ioos:station:wmo:42890:1,2014-07-02T20:02:00Z,27.6250,-90.4410,15.2,266.0,8.4,-9999.0,'11133222,11111222,99999999' 
ADCP,ioos:station:wmo:42890:1,2014-07-02T20:22:00Z,27.6250,-90.4410,15.2,299.0,8.5,-99999.0,'1111122,1111122,1199999999' 
ADCP,ioos:station:wmo:42890:1,2014-07-02T20:42:00Z,27.6250,-90.4410,15.2,35.0,7.2,-9999.0,'11133222,11111222,99999999' 
ADCP,ioos:station:wmo:42890:1,2014-07-02T21:02:00Z,27.6250,-90.4410,15.2,32.0,7.4,-9999.0,'11133222,11111222,99999999' 
ADCP,ioos:station:wmo:42890:1,2014-07-02T21:22:00Z,27.6250,-90.4410,15.2,52.0,10.8,-99999.0,'1111122,1111122,1199999999' 
ADCP,ioos:station:wmo:42890:1,2014-07-02T21:42:00Z,27.6250,-90.4410,15.2,61.0,11.1,-9999.0,'11111222,11111222,99999999' 
ADCP,ioos:station:wmo:42890:1,2014-07-02T22:02:00Z,27.6250,-90.4410,15.2,55.0,10.2,-9999.0,'11111222,11111222,99999999' 
ADCP,ioos:station:wmo:42890:1,2014-07-02T22:22:00Z,27.6250,-90.4410,15.2,47.0,8.3,-99999.0,'1111122,1111122,1199999999' 
ADCP,ioos:station:wmo:42890:1,2014-07-02T22:42:00Z,27.6250,-90.4410,15.2,58.0,10.5,-9999.0,'11111222,11111222,99999999' 
ADCP,ioos:station:wmo:42890:1,2014-07-02T23:02:00Z,27.6250,-90.4410,15.2,66.0,16.0,-9999.0,'11111222,11111222,99999999' 
ADCP,ioos:station:wmo:42890:1,2014-07-02T23:22:00Z,27.6250,-90.4410,15.2,66.0,15.4,-99999.0,'1111122,1111122,1199999999' 
ADCP,ioos:station:wmo:42890:1,2014-07-02T23:42:00Z,27.6250,-90.4410,15.2,71.0,16.6,-9999.0,'11111222,11111222,99999999' 
ADCP,ioos:station:wmo:42890:1,2014-07-03T00:02:00Z,27.6250,-90.4410,15.2,74.0,20.2,-9999.0,'11111222,11111222,99999999' 
ADCP,ioos:station:wmo:42890:1,2014-07-03T00:22:00Z,27.6250,-90.4410,15.2,81.0,17.9,-99999.0,'1111122,1111122,1199999999' 
ADCP,ioos:station:wmo:42890:1,2014-07-03T00:42:00Z,27.6250,-90.4410,15.2,85.0,21.4,-9999.0,'11111222,11111222,99999999' 
ADCP,ioos:station:wmo:42890:1,2014-07-03T01:02:00Z,27.6250,-90.4410,15.2,90.0,18.6,-9999.0,'11111222,11111222,99999999' 
ADCP,ioos:station:wmo:42890:1,2014-07-03T01:22:00Z,27.6250,-90.4410,15.2,92.0,20.1,-99999.0,'1111122,1111122,1199999999' 
ADCP,ioos:station:wmo:42890:1,2014-07-03T01:42:00Z,27.6250,-90.4410,15.2,94.0,17.1,-9999.0,'11111222,11111222,99999999' 
ADCP,ioos:station:wmo:42890:1,2014-07-03T02:02:00Z,27.6250,-90.4410,15.2,90.0,17.5,-9999.0,'11111222,11111222,99999999' 
ADCP,ioos:station:wmo:42890:1,2014-07-03T02:22:00Z,27.6250,-90.4410,15.2,93.0,17.2,-9999.0,'11111222,11111222,99999999' 
ADCP,ioos:station:wmo:42890:1,2014-07-03T02:42:00Z,27.6250,-90.4410,15.2,97.0,16.3,-9999.0,'11111222,11111222,99999999' 
ADCP,ioos:station:wmo:42890:1,2014-07-03T03:02:00Z,27.6250,-90.4410,15.2,103.0,15.7,-9999.0,'11111222,11111222,99999999' 
ADCP,ioos:station:wmo:42890:1,2014-07-03T03:22:00Z,27.6250,-90.4410,15.2,168.0,8.8,-99999.0,'1111122,1111122,1199999999' 
ADCP,ioos:station:wmo:42890:1,2014-07-03T03:42:00Z,27.6250,-90.4410,15.2,121.0,6.2,-9999.0,'11133222,11111222,99999999' 
ADCP,ioos:station:wmo:42890:1,2014-07-03T04:02:00Z,27.6250,-90.4410,15.2,101.0,9.9,-9999.0,'11133222,11111222,99999999' 
ADCP,ioos:station:wmo:42890:1,2014-07-03T04:22:00Z,27.6250,-90.4410,15.2,98.0,10.6,-99999.0,'1111122,1111122,1199999999' 
ADCP,ioos:station:wmo:42890:1,2014-07-03T04:42:00Z,27.6250,-90.4410,15.2,107.0,10.1,-9999.0,'11111222,11111222,99999999' 
ADCP,ioos:station:wmo:42890:1,2014-07-03T05:02:00Z,27.6250,-90.4410,15.2,113.0,7.8,-9999.0,'11133222,11111222,99999999' 
ADCP,ioos:station:wmo:42890:1,2014-07-03T05:22:00Z,27.6250,-90.4410,15.2,77.0,22.1,-99999.0,'1111122,1111122,1199999999' 
ADCP,ioos:station:wmo:42890:1,2014-07-03T05:42:00Z,27.6250,-90.4410,15.2,128.0,10.8,-9999.0,'11111222,11111222,99999999' 
ADCP,ioos:station:wmo:42890:1,2014-07-03T06:02:00Z,27.6250,-90.4410,15.2,96.0,8.6,-9999.0,'11133222,11111222,99999999' 
ADCP,ioos:station:wmo:42890:1,2014-07-03T06:22:00Z,27.6250,-90.4410,15.2,89.0,11.9,-99999.0,'1111122,1111122,1199999999' 
ADCP,ioos:station:wmo:42890:1,2014-07-03T06:42:00Z,27.6250,-90.4410,15.2,83.0,16.7,-9999.0,'11111222,11111222,99999999' 
ADCP,ioos:station:wmo:42890:1,2014-07-03T07:02:00Z,27.6250,-90.4410,15.2,88.0,19.0,-9999.0,'11111222,11111222,99999999' 
ADCP,ioos:station:wmo:42890:1,2014-07-03T07:22:00Z,27.6250,-90.4410,15.2,92.0,17.3,-99999.0,'1111122,1111122,1199999999' 
ADCP,ioos:station:wmo:42890:1,2014-07-03T07:42:00Z,27.6250,-90.4410,15.2,97.0,16.2,-9999.0,'11111222,11111222,99999999' 
ADCP,ioos:station:wmo:42890:1,2014-07-03T08:02:00Z,27.6250,-90.4410,15.2,104.0,17.3,-9999.0,'11111222,11111222,99999999' 
ADCP,ioos:station:wmo:42890:1,2014-07-03T08:22:00Z,27.6250,-90.4410,15.2,105.0,18.8,-99999.0,'1111122,1111122,1199999999' 
ADCP,ioos:station:wmo:42890:1,2014-07-03T08:42:00Z,27.6250,-90.4410,15.2,99.0,20.7,-9999.0,'11111222,11111222,99999999' 
ADCP,ioos:station:wmo:42890:1,2014-07-03T09:02:00Z,27.6250,-90.4410,15.2,98.0,25.2,-9999.0,'11111222,11111222,99999999' 
ADCP,ioos:station:wmo:42890:1,2014-07-03T09:22:00Z,27.6250,-90.4410,15.2,96.0,20.5,-99999.0,'1111122,1111122,1199999999' 
ADCP,ioos:station:wmo:42890:1,2014-07-03T09:42:00Z,27.6250,-90.4410,15.2,109.0,15.6,-9999.0,'11111222,11111222,99999999' 
ADCP,ioos:station:wmo:42890:1,2014-07-03T10:02:00Z,27.6250,-90.4410,15.2,116.0,14.6,-9999.0,'11111222,11111222,99999999' 
ADCP,ioos:station:wmo:42890:1,2014-07-03T10:22:00Z,27.6250,-90.4410,15.2,108.0,16.8,-99999.0,'1111122,1111122,1199999999' 
ADCP,ioos:station:wmo:42890:1,2014-07-03T10:42:00Z,27.6250,-90.4410,15.2,124.0,13.1,-9999.0,'11111222,11111222,99999999' 
ADCP,ioos:station:wmo:42890:1,2014-07-03T11:02:00Z,27.6250,-90.4410,15.2,129.0,9.6,-9999.0,'11133222,11111222,99999999' 
ADCP,ioos:station:wmo:42890:1,2014-07-03T11:22:00Z,27.6250,-90.4410,15.2,153.0,8.2,-99999.0,'1111122,1111122,1199999999' 
ADCP,ioos:station:wmo:42890:1,2014-07-03T11:42:00Z,27.6250,-90.4410,15.2,154.0,8.7,-9999.0,'11133222,11111222,99999999' 
ADCP,ioos:station:wmo:42890:1,2014-07-03T12:02:00Z,27.6250,-90.4410,15.2,153.0,13.0,-9999.0,'11111222,11111222,99999999' 
ADCP,ioos:station:wmo:42890:1,2014-07-03T12:22:00Z,27.6250,-90.4410,15.2,180.0,12.3,-99999.0,'1111122,1111122,1199999999' 
ADCP,ioos:station:wmo:42890:1,2014-07-03T12:42:00Z,27.6250,-90.4410,15.2,190.0,14.1,-9999.0,'11111222,11111222,99999999' 
ADCP,ioos:station:wmo:42890:1,2014-07-03T13:02:00Z,27.6250,-90.4410,15.2,187.0,14.1,-9999.0,'11111222,11111222,99999999' 
ADCP,ioos:station:wmo:42890:1,2014-07-03T13:22:00Z,27.6250,-90.4410,15.2,170.0,14.1,-99999.0,'1111122,1111122,1199999999' 
ADCP,ioos:station:wmo:42890:1,2014-07-03T13:42:00Z,27.6250,-90.4410,15.2,188.0,12.8,-9999.0,'11111222,11111222,99999999' 
ADCP,ioos:station:wmo:42890:1,2014-07-03T14:02:00Z,27.6250,-90.4410,15.2,185.0,11.6,-9999.0,'11111222,11111222,99999999' 
ADCP,ioos:station:wmo:42890:1,2014-07-03T14:22:00Z,27.6250,-90.4410,15.2,182.0,12.9,-99999.0,'1111122,1111122,1199999999' 
ADCP,ioos:station:wmo:42890:1,2014-07-03T14:42:00Z,27.6250,-90.4410,15.2,194.0,15.0,-9999.0,'11111222,11111222,99999999' 
ADCP,ioos:station:wmo:42890:1,2014-07-03T15:02:00Z,27.6250,-90.4410,15.2,180.0,15.0,-9999.0,'11111222,11111222,99999999' 
ADCP,ioos:station:wmo:42890:1,2014-07-03T15:22:00Z,27.6250,-90.4410,15.2,189.0,14.0,-99999.0,'1111122,1111122,1199999999' 
ADCP,ioos:station:wmo:42890:1,2014-07-03T15:42:00Z,27.6250,-90.4410,15.2,192.0,13.9,-9999.0,'11111222,11111222,99999999' 
ADCP,ioos:station:wmo:42890:1,2014-07-03T16:02:00Z,27.6250,-90.4410,15.2,171.0,14.3,-9999.0,'11111222,11111222,99999999' 
ADCP,ioos:station:wmo:42890:1,2014-07-03T16:22:00Z,27.6250,-90.4410,15.2,182.0,13.3,-9999.0,'11111222,11111222,99999999' 
ADCP,ioos:station:wmo:42890:1,2014-07-03T16:42:00Z,27.6250,-90.4410,15.2,188.0,14.0,-9999.0,'11111222,11111222,99999999' 